Location: ???????
(55.3754°N, 39.3545°E)
Time: 22:42:13
(UTC+00:00)

Cosmos 2360 Rocket - Pass Details

Date: 14 April 2026
Orbit: 831 x 845 km, 71.0° (Epoch: 13 May)

Event Time Altitude Azimuth Distance (km) Brightness Sun altitude
Rises 17:52:32 0° 240° (WSW) 3,382 5.7 -11.7°
Reaches altitude 10° 17:55:06 10° 247° (WSW) 2,453 5.0 -12.0°
Maximum altitude 18:00:25 41° 318° (NW) 1,201 3.6 -12.6°
Drops below altitude 10° 18:05:47 10° 28° (NNE) 2,473 4.8 -13.2°
Sets 18:08:24 0° 36° (NE) 3,413 5.4 -13.5°
